Eastsound, WA

8:11 PM PST on February 21, 2017 (GMT -0800)
Orcas Island

Weather History for KORS - April, 2013

Change the Weather History Date:

Friday, April 19, 2013

  Actual Average (KFHR) Record (KFHR)
Temperature  
Mean Temperature 50 °F -  
Max Temperature 53 °F 55 °F 75 °F (2016)
Min Temperature 48 °F 37 °F 33 °F (2007)
Degree Days  
Heating Degree Days 14    
Moisture  
Dew Point 48 °F    
Average Humidity 95    
Maximum Humidity 100    
Minimum Humidity 82    
Precipitation  
Precipitation 0.17 in - - ()
Sea Level Pressure  
Sea Level Pressure 30.08 in    
Wind  
Wind Speed 7 mph (SSW)    
Max Wind Speed 13 mph    
Max Gust Speed -    
Visibility 7 miles    
Events Rain    
Averages and records for this station are not official NWS values.
T = Trace of Precipitation, MM = Missing Value Source: NWS Daily Summary

Daily Weather History Graph

Daily Weather History Graph

Search for Another Location

Airport or City:

Trip Planner

Search our weather history database for the weather conditions in past years. The results will help you decide how hot, cold, wet, or windy it might be!

Date:

Astronomy

Apr. 19, 2013 Rise Set
Actual Time 6:12 AM PDT 8:09 PM PDT
Civil Twilight 5:38 AM PDT 8:43 PM PDT
Nautical Twilight 4:57 AM PDT 9:25 PM PDT
Astronomical Twilight 4:11 AM PDT 10:11 PM PDT
Moon 1:30 PM PDT (4/19) 3:02 AM PDT (4/19)
Length of Visible Light 15h 04m
Length of Day
13h 57m
Waxing Gibbous, 62% of the Moon is Illuminated
Apr 19
Waxing Gibbous
Apr 25
Full
May 2
Last Quarter
May 9
New
May 17
First Quarter

Hourly Weather History & Observations

Time (PDT) Temp. Dew Point Humidity Pressure Visibility Wind Dir Wind Speed Gust Speed Precip Events Conditions
12:15 AM 48.2 °F 46.4 °F 93% 30.15 in 6.0 mi SSW 8.1 mph - N/A Rain Light Rain
12:35 AM 48.2 °F 46.4 °F 93% 30.15 in 7.0 mi SW 8.1 mph - N/A Rain Light Rain
12:55 AM 48.2 °F 48.2 °F 100% 30.15 in 5.0 mi South 6.9 mph - N/A Rain Rain
1:15 AM 48.2 °F 48.2 °F 100% 30.14 in 4.0 mi South 5.8 mph - 0.03 in Rain Rain
1:35 AM 48.2 °F 48.2 °F 100% 30.14 in 4.0 mi South 9.2 mph - 0.05 in Rain Rain
1:55 AM 48.2 °F 48.2 °F 100% 30.13 in 3.0 mi SSW 8.1 mph - 0.10 in Rain Heavy Rain
2:15 AM 48.2 °F 48.2 °F 100% 30.13 in 4.0 mi South 8.1 mph - 0.03 in Rain Rain
2:35 AM 48.2 °F 48.2 °F 100% 30.12 in 5.0 mi SW 6.9 mph - 0.05 in Rain Rain
2:55 AM 48.2 °F 48.2 °F 100% 30.11 in 5.0 mi South 8.1 mph - 0.05 in Rain Rain
3:15 AM 48.2 °F 48.2 °F 100% 30.10 in 4.0 mi South 8.1 mph - N/A Rain Light Rain
3:35 AM 48.2 °F 48.2 °F 100% 30.09 in 8.0 mi SSW 10.4 mph - N/A Rain Light Rain
3:55 AM 48.2 °F 48.2 °F 100% 30.08 in 6.0 mi South 9.2 mph - N/A Rain Light Rain
4:15 AM 48.2 °F 48.2 °F 100% 30.07 in 7.0 mi SSW 10.4 mph - N/A Rain Light Rain
4:35 AM 48.2 °F 48.2 °F 100% 30.07 in 9.0 mi South 6.9 mph - N/A Rain Light Rain
4:55 AM 48.2 °F 48.2 °F 100% 30.06 in 10.0 mi SSW 8.1 mph - N/A   Mostly Cloudy
5:15 AM 48.2 °F 48.2 °F 100% 30.06 in 10.0 mi SSW 9.2 mph - N/A   Overcast
5:35 AM 48.2 °F 48.2 °F 100% 30.06 in 10.0 mi SSW 10.4 mph - N/A Rain Light Rain
5:55 AM 48.2 °F 48.2 °F 100% 30.05 in 7.0 mi SSW 8.1 mph - N/A Rain Light Rain
6:15 AM 48.2 °F 48.2 °F 100% 30.05 in 10.0 mi South 8.1 mph - N/A Rain Light Rain
6:35 AM 48.2 °F 48.2 °F 100% 30.04 in 9.0 mi South 8.1 mph - N/A Rain Light Rain
6:55 AM 48.2 °F 46.4 °F 93% 30.05 in 7.0 mi SSW 9.2 mph - N/A Rain Light Rain
7:15 AM 48.2 °F 48.2 °F 100% 30.05 in 3.0 mi South 5.8 mph - N/A Rain Light Rain
7:35 AM 48.2 °F 48.2 °F 100% 30.05 in 1.8 mi South 8.1 mph - 0.01 in Rain Rain
7:55 AM 48.2 °F 48.2 °F 100% 30.05 in 2.0 mi South 6.9 mph - 0.01 in Rain Rain
8:15 AM 48.2 °F 48.2 °F 100% 30.04 in 2.5 mi South 6.9 mph - 0.01 in Rain Light Rain
8:35 AM 48.2 °F 48.2 °F 100% 30.04 in 2.5 mi South 8.1 mph - 0.01 in Rain Light Rain
8:55 AM 48.2 °F 48.2 °F 100% 30.04 in 4.0 mi South 5.8 mph - 0.01 in Rain Light Rain
9:15 AM 48.2 °F 48.2 °F 100% 30.04 in 7.0 mi SSW 8.1 mph - N/A   Overcast
9:35 AM 48.2 °F 48.2 °F 100% 30.04 in 1.8 mi South 5.8 mph - N/A Rain Light Rain
9:55 AM 48.2 °F 48.2 °F 100% 30.04 in 2.5 mi South 5.8 mph - N/A   Overcast
10:15 AM 48.2 °F 48.2 °F 100% 30.05 in 1.8 mi South 6.9 mph - N/A Rain Light Rain
10:35 AM 48.2 °F 48.2 °F 100% 30.05 in 2.5 mi South 6.9 mph - N/A Rain Light Rain
10:55 AM 48.2 °F 48.2 °F 100% 30.06 in 1.5 mi South 5.8 mph - N/A Rain Light Rain
11:15 AM 48.2 °F 48.2 °F 100% 30.06 in 1.0 mi South 4.6 mph - N/A Rain Light Rain
11:35 AM 48.2 °F 48.2 °F 100% 30.07 in 1.0 mi South 4.6 mph - N/A Rain Light Rain
11:55 AM 48.2 °F 48.2 °F 100% 30.07 in 1.2 mi South 6.9 mph - N/A Rain Light Rain
12:15 PM 50.0 °F 50.0 °F 100% 30.07 in 2.5 mi SSW 6.9 mph - N/A   Mostly Cloudy
12:35 PM 50.0 °F 50.0 °F 100% 30.08 in 9.0 mi South 5.8 mph - N/A   Overcast
12:55 PM 50.0 °F 50.0 °F 100% 30.08 in 2.0 mi Calm Calm - N/A   Overcast
1:15 PM 50.0 °F 50.0 °F 100% 30.08 in 2.5 mi Calm Calm - N/A   Overcast
1:35 PM 50.0 °F 50.0 °F 100% 30.08 in 10.0 mi South 3.5 mph - N/A   Mostly Cloudy
1:55 PM 53.6 °F 50.0 °F 88% 30.08 in 10.0 mi North - - N/A   Mostly Cloudy
2:15 PM 51.8 °F 50.0 °F 94% 30.08 in 10.0 mi West 3.5 mph - N/A   Mostly Cloudy
2:35 PM 53.6 °F 48.2 °F 82% 30.08 in 10.0 mi West 3.5 mph - N/A   Mostly Cloudy
2:55 PM 53.6 °F 48.2 °F 82% 30.08 in 10.0 mi Calm Calm - N/A   Mostly Cloudy
3:15 PM 53.6 °F 48.2 °F 82% 30.09 in 10.0 mi NW 5.8 mph - N/A   Mostly Cloudy
3:35 PM 51.8 °F 48.2 °F 88% 30.09 in 10.0 mi NNW 8.1 mph - N/A   Overcast
3:55 PM 50.0 °F 48.2 °F 94% 30.09 in 10.0 mi North 5.8 mph - N/A   Mostly Cloudy
4:15 PM 50.0 °F 48.2 °F 94% 30.09 in 10.0 mi NNW 4.6 mph - N/A   Mostly Cloudy
4:35 PM 50.0 °F 48.2 °F 94% 30.09 in 10.0 mi Calm Calm - N/A   Mostly Cloudy
4:55 PM 50.0 °F 48.2 °F 94% 30.09 in 10.0 mi Calm Calm - N/A   Partly Cloudy
5:15 PM 51.8 °F 48.2 °F 88% 30.09 in 10.0 mi Calm Calm - N/A   Clear
5:35 PM 53.6 °F 50.0 °F 88% 30.09 in 9.0 mi Calm Calm - N/A   Clear
5:55 PM 53.6 °F 50.0 °F 88% 30.09 in 10.0 mi South 4.6 mph - N/A   Partly Cloudy
6:15 PM 53.6 °F 50.0 °F 88% 30.09 in 10.0 mi South 8.1 mph - N/A   Mostly Cloudy
6:35 PM 51.8 °F 50.0 °F 94% 30.09 in 10.0 mi SSW 10.4 mph - N/A   Scattered Clouds
6:55 PM 53.6 °F 50.0 °F 88% 30.09 in 10.0 mi SSW 8.1 mph - N/A   Scattered Clouds
7:15 PM 53.6 °F 50.0 °F 88% 30.09 in 10.0 mi South 9.2 mph - N/A   Partly Cloudy
7:35 PM 51.8 °F 48.2 °F 88% 30.08 in 10.0 mi South 8.1 mph - N/A   Partly Cloudy
7:55 PM 50.0 °F 48.2 °F 94% 30.08 in 10.0 mi South 12.7 mph - N/A   Mostly Cloudy
8:15 PM 50.0 °F 48.2 °F 94% 30.09 in 10.0 mi SSW 8.1 mph - N/A   Partly Cloudy
8:35 PM 50.0 °F 48.2 °F 94% 30.09 in 10.0 mi SSW 10.4 mph - N/A   Mostly Cloudy
8:55 PM 50.0 °F 46.4 °F 87% 30.10 in 10.0 mi South 9.2 mph - N/A   Overcast
9:15 PM 50.0 °F 46.4 °F 87% 30.10 in 10.0 mi South 10.4 mph - N/A   Overcast
9:35 PM 48.2 °F 46.4 °F 93% 30.11 in 10.0 mi South 8.1 mph - N/A   Overcast
9:55 PM 48.2 °F 46.4 °F 93% 30.11 in 10.0 mi South 8.1 mph - N/A   Scattered Clouds
10:15 PM 48.2 °F 46.4 °F 93% 30.11 in 10.0 mi South 10.4 mph - N/A   Mostly Cloudy
10:35 PM 48.2 °F 44.6 °F 87% 30.12 in 10.0 mi SSW 8.1 mph - N/A   Mostly Cloudy
10:55 PM 48.2 °F 44.6 °F 87% 30.12 in 10.0 mi SSW 8.1 mph - N/A   Mostly Cloudy
11:15 PM 50.0 °F 44.6 °F 82% 30.12 in 10.0 mi SW 10.4 mph - N/A   Mostly Cloudy
11:35 PM 50.0 °F 44.6 °F 82% 30.12 in 10.0 mi South 8.1 mph - N/A   Mostly Cloudy
11:55 PM 50.0 °F 44.6 °F 82% 30.13 in 10.0 mi SSW 8.1 mph - N/A   Mostly Cloudy